Time,TemperatureF,DewpointF,PressureIn,WindDirection,WindDirectionDegrees,WindSpeedMPH,WindSpeedGustMPH,Humidity,HourlyPrecipIn,Conditions,Clouds,dailyrainin,SoftwareType,DateUTC
2013-03-06 00:03:00,34.3,27.4,29.71,NE,45,0.0,0.0,76,0.00,,,0.00,WUHU216HW,2013-03-06 05:03:00,
2013-03-06 00:08:00,34.1,27.9,29.71,ESE,113,0.0,0.0,78,0.00,,,0.00,WUHU216HW,2013-03-06 05:08:00,
2013-03-06 00:13:00,33.9,27.7,29.71,East,90,0.0,0.0,78,0.00,,,0.00,WUHU216HW,2013-03-06 05:13:00,
2013-03-06 00:18:00,33.8,27.8,29.71,NE,45,0.0,0.0,79,0.00,,,0.00,WUHU216HW,2013-03-06 05:18:00,
2013-03-06 00:24:00,33.6,28.0,29.71,ENE,68,0.0,0.0,80,0.00,,,0.00,WUHU216HW,2013-03-06 05:24:00,
2013-03-06 00:30:00,33.6,28.3,29.71,ENE,68,0.0,0.0,81,0.00,,,0.00,WUHU216HW,2013-03-06 05:30:00,
2013-03-06 00:41:00,33.4,28.4,29.71,ENE,68,0.0,0.0,82,0.00,,,0.00,WUHU216HW,2013-03-06 05:41:00,
2013-03-06 00:47:00,33.2,28.3,29.70,ENE,68,0.0,0.0,82,0.00,,,0.00,WUHU216HW,2013-03-06 05:47:00,
2013-03-06 00:52:00,33.2,28.3,29.71,ENE,68,0.0,0.0,82,0.00,,,0.00,WUHU216HW,2013-03-06 05:52:00,
2013-03-06 00:57:00,33.0,28.4,29.71,ENE,68,0.0,0.0,83,0.00,,,0.00,WUHU216HW,2013-03-06 05:57:00,
2013-03-06 01:02:00,33.0,28.4,29.71,ENE,68,0.0,0.0,83,0.00,,,0.00,WUHU216HW,2013-03-06 06:02:00,
2013-03-06 01:08:00,33.0,28.7,29.71,ENE,68,0.0,0.0,84,0.00,,,0.00,WUHU216HW,2013-03-06 06:08:00,
2013-03-06 01:14:00,33.0,28.7,29.70,ENE,68,0.0,0.0,84,0.00,,,0.00,WUHU216HW,2013-03-06 06:14:00,
2013-03-06 01:19:00,33.0,29.0,29.70,ENE,68,0.0,0.0,85,0.00,,,0.00,WUHU216HW,2013-03-06 06:19:00,
2013-03-06 01:24:00,33.0,29.0,29.71,ENE,68,0.0,0.0,85,0.00,,,0.00,WUHU216HW,2013-03-06 06:24:00,
2013-03-06 01:29:00,32.9,29.0,29.71,ENE,68,0.0,0.0,85,0.00,,,0.00,WUHU216HW,2013-03-06 06:29:00,
2013-03-06 01:39:00,32.9,28.8,29.72,ENE,68,0.0,0.0,85,0.00,,,0.00,WUHU216HW,2013-03-06 06:39:00,
2013-03-06 01:45:00,32.9,28.8,29.72,ENE,68,0.0,0.0,85,0.00,,,0.00,WUHU216HW,2013-03-06 06:45:00,
2013-03-06 01:50:00,32.7,28.6,29.72,ENE,68,0.0,0.0,85,0.00,,,0.00,WUHU216HW,2013-03-06 06:50:00,
2013-03-06 01:56:00,32.7,28.6,29.72,ENE,68,0.0,0.0,85,0.00,,,0.00,WUHU216HW,2013-03-06 06:56:00,
2013-03-06 02:01:00,32.7,28.6,29.72,ENE,68,0.0,0.0,85,0.00,,,0.00,WUHU216HW,2013-03-06 07:01:00,
2013-03-06 02:06:00,32.7,28.6,29.72,ENE,68,0.0,0.0,85,0.00,,,0.00,WUHU216HW,2013-03-06 07:06:00,
2013-03-06 02:12:00,32.7,28.6,29.72,ENE,68,0.0,0.0,85,0.00,,,0.00,WUHU216HW,2013-03-06 07:12:00,
2013-03-06 02:17:00,32.7,28.6,29.72,ENE,68,0.0,0.0,85,0.00,,,0.00,WUHU216HW,2013-03-06 07:17:00,
2013-03-06 02:22:00,32.7,28.9,29.72,ENE,68,0.0,0.0,86,0.00,,,0.00,WUHU216HW,2013-03-06 07:22:00,
2013-03-06 02:28:00,32.7,28.9,29.72,ENE,68,0.0,0.0,86,0.00,,,0.00,WUHU216HW,2013-03-06 07:28:00,
2013-03-06 02:33:00,32.7,28.9,29.72,ENE,68,0.0,0.0,86,0.00,,,0.00,WUHU216HW,2013-03-06 07:33:00,
2013-03-06 02:38:00,32.5,29.1,29.72,ENE,68,0.0,0.0,87,0.00,,,0.00,WUHU216HW,2013-03-06 07:38:00,
2013-03-06 02:44:00,32.5,29.1,29.73,ENE,68,0.0,0.0,87,0.00,,,0.00,WUHU216HW,2013-03-06 07:44:00,
2013-03-06 02:50:00,32.5,29.1,29.73,ENE,68,0.0,0.0,87,0.00,,,0.00,WUHU216HW,2013-03-06 07:50:00,
2013-03-06 02:55:00,32.5,29.1,29.74,ENE,68,0.0,0.0,87,0.00,,,0.00,WUHU216HW,2013-03-06 07:55:00,
2013-03-06 03:01:00,32.5,29.1,29.74,ENE,68,0.0,0.0,87,0.00,,,0.00,WUHU216HW,2013-03-06 08:01:00,
2013-03-06 03:07:00,32.5,29.1,29.74,ENE,68,0.0,0.0,87,0.00,,,0.00,WUHU216HW,2013-03-06 08:07:00,
2013-03-06 03:12:00,32.5,28.8,29.74,ENE,68,0.0,0.0,87,0.00,,,0.00,WUHU216HW,2013-03-06 08:12:00,
2013-03-06 03:17:00,32.5,29.1,29.74,ENE,68,0.0,0.0,87,0.00,,,0.00,WUHU216HW,2013-03-06 08:17:00,
2013-03-06 03:23:00,32.5,29.1,29.74,ENE,68,0.0,0.0,87,0.00,,,0.00,WUHU216HW,2013-03-06 08:23:00,
2013-03-06 03:28:00,32.3,28.9,29.75,ENE,68,0.0,0.0,87,0.00,,,0.00,WUHU216HW,2013-03-06 08:28:00,
2013-03-06 03:34:00,32.3,28.9,29.75,ENE,68,0.0,0.0,87,0.00,,,0.00,WUHU216HW,2013-03-06 08:34:00,
2013-03-06 03:40:00,32.3,28.6,29.76,ENE,68,0.0,0.0,86,0.00,,,0.00,WUHU216HW,2013-03-06 08:40:00,
2013-03-06 03:45:00,32.3,28.6,29.76,ENE,68,0.0,0.0,86,0.00,,,0.00,WUHU216HW,2013-03-06 08:45:00,
2013-03-06 03:50:00,32.3,28.6,29.76,ENE,68,0.0,0.0,86,0.00,,,0.00,WUHU216HW,2013-03-06 08:50:00,
2013-03-06 03:55:00,32.3,28.6,29.76,ENE,68,0.0,0.0,86,0.00,,,0.00,WUHU216HW,2013-03-06 08:55:00,
2013-03-06 04:01:00,32.3,28.6,29.77,ENE,68,0.0,0.0,86,0.00,,,0.00,WUHU216HW,2013-03-06 09:01:00,
2013-03-06 04:07:00,32.3,28.6,29.77,ENE,68,0.0,0.0,86,0.00,,,0.00,WUHU216HW,2013-03-06 09:07:00,
2013-03-06 04:12:00,32.3,28.6,29.77,ENE,68,0.0,0.0,86,0.00,,,0.00,WUHU216HW,2013-03-06 09:12:00,
2013-03-06 04:17:00,32.3,28.6,29.77,ENE,68,0.0,0.0,86,0.00,,,0.00,WUHU216HW,2013-03-06 09:17:00,
2013-03-06 04:23:00,32.3,28.6,29.78,ENE,68,0.0,0.0,86,0.00,,,0.00,WUHU216HW,2013-03-06 09:23:00,
2013-03-06 04:28:00,32.3,28.6,29.78,ENE,68,0.0,0.0,86,0.00,,,0.00,WUHU216HW,2013-03-06 09:28:00,
2013-03-06 04:33:00,32.3,28.6,29.78,ENE,68,0.0,0.0,86,0.00,,,0.00,WUHU216HW,2013-03-06 09:33:00,
2013-03-06 04:38:00,32.3,28.6,29.78,ENE,68,0.0,0.0,86,0.00,,,0.00,WUHU216HW,2013-03-06 09:38:00,
2013-03-06 04:43:00,32.3,28.6,29.78,ENE,68,0.0,0.0,86,0.00,,,0.00,WUHU216HW,2013-03-06 09:43:00,
2013-03-06 04:48:00,32.3,28.6,29.79,ENE,68,0.0,0.0,86,0.00,,,0.00,WUHU216HW,2013-03-06 09:48:00,
2013-03-06 04:54:00,32.3,28.6,29.79,ENE,68,0.0,0.0,86,0.00,,,0.00,WUHU216HW,2013-03-06 09:54:00,
2013-03-06 05:00:00,32.3,28.6,29.79,ENE,68,0.0,0.0,86,0.00,,,0.00,WUHU216HW,2013-03-06 10:00:00,
2013-03-06 05:11:00,32.3,28.6,29.79,ENE,68,0.0,0.0,86,0.00,,,0.00,WUHU216HW,2013-03-06 10:11:00,
2013-03-06 05:17:00,32.3,28.6,29.79,ENE,68,0.0,0.0,86,0.00,,,0.00,WUHU216HW,2013-03-06 10:17:00,
2013-03-06 05:22:00,32.3,28.6,29.79,ENE,68,0.0,0.0,86,0.00,,,0.00,WUHU216HW,2013-03-06 10:22:00,
2013-03-06 05:28:00,32.3,28.6,29.79,ENE,68,0.0,0.0,86,0.00,,,0.00,WUHU216HW,2013-03-06 10:28:00,
2013-03-06 05:34:00,32.3,28.9,29.80,ENE,68,0.0,0.0,87,0.00,,,0.00,WUHU216HW,2013-03-06 10:34:00,
2013-03-06 05:40:00,32.3,28.9,29.80,ENE,68,0.0,0.0,87,0.00,,,0.00,WUHU216HW,2013-03-06 10:40:00,
2013-03-06 05:45:00,32.1,28.4,29.81,ENE,68,0.0,0.0,86,0.00,,,0.00,WUHU216HW,2013-03-06 10:45:00,
2013-03-06 05:51:00,32.1,28.4,29.81,ENE,68,0.0,0.0,86,0.00,,,0.00,WUHU216HW,2013-03-06 10:51:00,
2013-03-06 05:57:00,32.1,28.4,29.82,ENE,68,0.0,0.0,86,0.00,,,0.00,WUHU216HW,2013-03-06 10:57:00,
2013-03-06 06:03:00,32.1,28.4,29.82,ENE,68,0.0,0.0,86,0.00,,,0.00,WUHU216HW,2013-03-06 11:03:00,
2013-03-06 06:08:00,32.1,28.4,29.82,ENE,68,0.0,0.0,86,0.00,,,0.00,WUHU216HW,2013-03-06 11:08:00,
2013-03-06 06:13:00,32.1,28.7,29.82,ENE,68,0.0,0.0,87,0.00,,,0.00,WUHU216HW,2013-03-06 11:13:00,
2013-03-06 06:19:00,32.1,28.7,29.82,ENE,68,0.0,0.0,87,0.00,,,0.00,WUHU216HW,2013-03-06 11:19:00,
2013-03-06 06:24:00,32.1,28.7,29.82,ENE,68,0.0,0.0,87,0.00,,,0.00,WUHU216HW,2013-03-06 11:24:00,
2013-03-06 06:29:00,32.1,28.7,29.82,ENE,68,0.0,0.0,87,0.00,,,0.00,WUHU216HW,2013-03-06 11:29:00,
2013-03-06 06:35:00,32.1,28.7,29.83,ENE,68,0.0,0.0,87,0.00,,,0.00,WUHU216HW,2013-03-06 11:35:00,
2013-03-06 06:41:00,32.3,28.9,29.83,ENE,68,0.0,0.0,87,0.00,,,0.00,WUHU216HW,2013-03-06 11:41:00,
2013-03-06 06:47:00,32.3,28.9,29.83,ENE,68,0.0,0.0,87,0.00,,,0.00,WUHU216HW,2013-03-06 11:47:00,
2013-03-06 06:53:00,32.3,28.9,29.83,ENE,68,0.0,0.0,87,0.00,,,0.00,WUHU216HW,2013-03-06 11:53:00,
2013-03-06 06:58:00,32.3,28.9,29.84,ENE,68,0.0,0.0,87,0.00,,,0.00,WUHU216HW,2013-03-06 11:58:00,
2013-03-06 07:04:00,32.3,29.2,29.84,ENE,68,0.0,0.0,88,0.00,,,0.00,WUHU216HW,2013-03-06 12:04:00,
2013-03-06 07:09:00,32.5,29.3,29.84,ENE,68,0.0,0.0,88,0.00,,,0.00,WUHU216HW,2013-03-06 12:09:00,
2013-03-06 07:14:00,32.5,29.3,29.84,ENE,68,0.0,0.0,88,0.00,,,0.00,WUHU216HW,2013-03-06 12:14:00,
2013-03-06 07:19:00,32.5,29.3,29.84,ENE,68,0.0,0.0,88,0.00,,,0.00,WUHU216HW,2013-03-06 12:19:00,
2013-03-06 07:25:00,32.7,29.5,29.85,ENE,68,0.0,0.0,88,0.00,,,0.00,WUHU216HW,2013-03-06 12:25:00,
2013-03-06 07:31:00,32.7,29.5,29.85,ENE,68,0.0,0.0,88,0.00,,,0.00,WUHU216HW,2013-03-06 12:31:00,
2013-03-06 07:37:00,32.7,29.5,29.86,ENE,68,0.0,0.0,88,0.00,,,0.00,WUHU216HW,2013-03-06 12:37:00,
2013-03-06 07:42:00,32.9,29.7,29.86,ENE,68,0.0,0.0,88,0.00,,,0.00,WUHU216HW,2013-03-06 12:42:00,
2013-03-06 07:47:00,33.0,29.8,29.86,ENE,68,0.0,0.0,88,0.00,,,0.00,WUHU216HW,2013-03-06 12:47:00,
2013-03-06 07:53:00,33.2,30.3,29.87,ENE,68,0.0,0.0,89,0.00,,,0.00,WUHU216HW,2013-03-06 12:53:00,
2013-03-06 07:58:00,33.4,30.4,29.87,ENE,68,0.0,0.0,89,0.00,,,0.00,WUHU216HW,2013-03-06 12:58:00,
2013-03-06 08:03:00,33.4,30.4,29.87,ENE,68,0.0,0.0,89,0.00,,,0.00,WUHU216HW,2013-03-06 13:03:00,
2013-03-06 08:09:00,33.6,30.6,29.87,ENE,68,0.0,0.0,89,0.00,,,0.00,WUHU216HW,2013-03-06 13:09:00,
2013-03-06 08:14:00,33.6,30.6,29.87,ENE,68,0.0,0.0,89,0.00,,,0.00,WUHU216HW,2013-03-06 13:14:00,
2013-03-06 08:20:00,33.9,30.9,29.88,ENE,68,0.0,0.0,89,0.00,,,0.00,WUHU216HW,2013-03-06 13:20:00,
2013-03-06 08:26:00,34.3,31.3,29.88,ENE,68,0.0,0.0,89,0.00,,,0.00,WUHU216HW,2013-03-06 13:26:00,
2013-03-06 08:31:00,34.3,31.3,29.88,ENE,68,0.0,0.0,89,0.00,,,0.00,WUHU216HW,2013-03-06 13:31:00,
2013-03-06 08:36:00,34.3,31.3,29.88,ENE,68,0.0,0.0,89,0.00,,,0.00,WUHU216HW,2013-03-06 13:36:00,
2013-03-06 08:42:00,34.3,31.3,29.89,ENE,68,0.0,0.0,89,0.00,,,0.00,WUHU216HW,2013-03-06 13:42:00,
2013-03-06 08:47:00,34.3,31.3,29.89,ENE,68,0.0,0.0,89,0.00,,,0.00,WUHU216HW,2013-03-06 13:47:00,
2013-03-06 08:52:00,34.5,31.5,29.90,ENE,68,0.0,0.0,89,0.00,,,0.00,WUHU216HW,2013-03-06 13:52:00,
2013-03-06 08:58:00,34.7,31.7,29.90,ENE,68,0.0,0.0,89,0.00,,,0.00,WUHU216HW,2013-03-06 13:58:00,
2013-03-06 09:03:00,34.7,31.7,29.90,ENE,68,0.0,0.0,89,0.00,,,0.00,WUHU216HW,2013-03-06 14:03:00,
2013-03-06 09:08:00,34.7,31.4,29.90,ENE,68,0.0,0.0,88,0.00,,,0.00,WUHU216HW,2013-03-06 14:08:00,
2013-03-06 09:13:00,34.7,31.4,29.90,ENE,68,0.0,0.0,88,0.00,,,0.00,WUHU216HW,2013-03-06 14:13:00,
2013-03-06 09:18:00,34.8,31.6,29.91,ENE,68,0.0,0.0,88,0.00,,,0.00,WUHU216HW,2013-03-06 14:18:00,
2013-03-06 09:23:00,34.8,31.6,29.91,ENE,68,0.0,0.0,88,0.00,,,0.00,WUHU216HW,2013-03-06 14:23:00,
2013-03-06 09:29:00,35.4,32.1,29.91,ENE,68,0.0,0.0,88,0.00,,,0.00,WUHU216HW,2013-03-06 14:29:00,
2013-03-06 09:35:00,35.7,32.5,29.92,ENE,68,0.0,0.0,88,0.00,,,0.00,WUHU216HW,2013-03-06 14:35:00,
2013-03-06 09:41:00,36.3,33.0,29.92,ENE,68,0.0,0.0,88,0.00,,,0.00,WUHU216HW,2013-03-06 14:41:00,
2013-03-06 09:46:00,36.3,32.7,29.92,ENE,68,0.0,0.0,87,0.00,,,0.00,WUHU216HW,2013-03-06 14:46:00,
2013-03-06 09:52:00,36.6,33.1,29.92,NE,45,0.0,0.0,87,0.00,,,0.00,WUHU216HW,2013-03-06 14:52:00,
2013-03-06 09:57:00,36.6,33.1,29.92,NE,45,0.0,0.0,86,0.00,,,0.00,WUHU216HW,2013-03-06 14:57:00,
2013-03-06 10:02:00,36.6,32.8,29.93,NE,45,0.0,0.0,86,0.00,,,0.00,WUHU216HW,2013-03-06 15:02:00,
2013-03-06 10:08:00,36.8,33.0,29.93,NE,45,0.0,0.0,86,0.00,,,0.00,WUHU216HW,2013-03-06 15:08:00,
2013-03-06 10:13:00,36.6,32.8,29.94,NE,45,0.0,0.0,86,0.00,,,0.00,WUHU216HW,2013-03-06 15:13:00,
2013-03-06 10:18:00,36.3,32.4,29.94,NE,45,0.0,0.0,86,0.00,,,0.00,WUHU216HW,2013-03-06 15:18:00,
2013-03-06 10:24:00,36.3,32.4,29.94,NE,45,0.0,0.0,86,0.00,,,0.00,WUHU216HW,2013-03-06 15:24:00,
2013-03-06 10:30:00,36.1,32.2,29.95,NE,45,0.0,0.0,86,0.00,,,0.00,WUHU216HW,2013-03-06 15:30:00,
2013-03-06 10:35:00,36.1,32.2,29.95,NE,45,0.0,0.0,86,0.00,,,0.00,WUHU216HW,2013-03-06 15:35:00,
2013-03-06 10:40:00,36.3,32.4,29.95,NE,45,0.0,0.0,86,0.00,,,0.00,WUHU216HW,2013-03-06 15:40:00,
2013-03-06 10:51:00,36.3,32.4,29.95,NNE,23,0.0,0.0,86,0.00,,,0.00,WUHU216HW,2013-03-06 15:51:00,
2013-03-06 10:57:00,36.3,32.4,29.96,NE,45,0.0,8.2,86,0.00,,,0.00,WUHU216HW,2013-03-06 15:57:00,
2013-03-06 11:03:00,36.5,32.6,29.96,NE,45,1.1,8.2,86,0.00,,,0.00,WUHU216HW,2013-03-06 16:03:00,
2013-03-06 11:09:00,36.8,32.7,29.96,NNE,23,0.0,3.3,85,0.00,,,0.00,WUHU216HW,2013-03-06 16:09:00,
2013-03-06 11:14:00,37.2,33.0,29.96,NNE,23,0.0,3.3,85,0.00,,,0.00,WUHU216HW,2013-03-06 16:14:00,
2013-03-06 11:19:00,37.7,33.6,29.96,NNE,23,0.0,0.0,85,0.00,,,0.00,WUHU216HW,2013-03-06 16:19:00,
2013-03-06 11:30:00,38.6,34.5,29.96,NNE,23,0.0,0.0,85,0.00,,,0.00,WUHU216HW,2013-03-06 16:30:00,
2013-03-06 11:36:00,39.3,34.5,29.97,NNE,23,0.0,0.0,84,0.00,,,0.00,WUHU216HW,2013-03-06 16:36:00,
2013-03-06 11:42:00,40.6,35.4,29.97,North,0,0.0,5.5,83,0.00,,,0.00,WUHU216HW,2013-03-06 16:42:00,
2013-03-06 11:48:00,40.8,35.6,29.97,North,0,0.0,5.5,82,0.00,,,0.00,WUHU216HW,2013-03-06 16:48:00,
2013-03-06 11:54:00,41.7,36.2,29.97,North,0,0.0,1.1,81,0.00,,,0.00,WUHU216HW,2013-03-06 16:54:00,
2013-03-06 11:59:00,42.4,36.6,29.97,NNE,23,0.0,3.8,80,0.00,,,0.00,WUHU216HW,2013-03-06 16:59:00,
2013-03-06 12:05:00,43.1,36.7,29.97,North,0,0.0,3.8,78,0.00,,,0.00,WUHU216HW,2013-03-06 17:05:00,
2013-03-06 12:10:00,44.2,37.4,29.97,NE,45,0.0,0.0,77,0.00,,,0.00,WUHU216HW,2013-03-06 17:10:00,
2013-03-06 12:16:00,44.4,36.9,29.98,NNE,23,3.8,8.0,75,0.02,,,0.02,WUHU216HW,2013-03-06 17:16:00,
2013-03-06 12:22:00,44.2,36.4,29.98,North,0,0.0,8.0,74,0.04,,,0.04,WUHU216HW,2013-03-06 17:22:00,
2013-03-06 12:28:00,44.4,36.2,29.98,NNE,23,0.0,0.0,73,0.06,,,0.06,WUHU216HW,2013-03-06 17:28:00,
2013-03-06 12:33:00,44.4,36.2,29.98,NNE,23,0.0,0.0,73,0.10,,,0.10,WUHU216HW,2013-03-06 17:33:00,
2013-03-06 12:38:00,44.9,36.4,29.98,NNE,23,6.9,6.9,72,0.10,,,0.10,WUHU216HW,2013-03-06 17:38:00,
2013-03-06 12:43:00,45.3,36.8,29.98,NE,45,4.9,6.9,72,0.12,,,0.12,WUHU216HW,2013-03-06 17:43:00,
2013-03-06 12:49:00,46.0,36.8,29.98,NNE,23,2.6,6.9,70,0.12,,,0.12,WUHU216HW,2013-03-06 17:49:00,
2013-03-06 12:55:00,46.2,36.6,29.98,North,0,5.3,5.3,69,0.14,,,0.14,WUHU216HW,2013-03-06 17:55:00,
2013-03-06 13:00:00,46.0,36.0,29.98,NE,45,5.3,5.3,68,0.18,,,0.18,WUHU216HW,2013-03-06 18:00:00,
2013-03-06 13:06:00,45.1,34.8,29.98,NNE,23,0.4,7.6,67,0.18,,,0.18,WUHU216HW,2013-03-06 18:06:00,
2013-03-06 13:11:00,45.1,34.8,29.98,NNE,23,5.8,7.6,67,0.18,,,0.18,WUHU216HW,2013-03-06 18:11:00,
2013-03-06 13:17:00,45.6,35.3,29.98,NE,45,0.0,5.8,67,0.18,,,0.20,WUHU216HW,2013-03-06 18:17:00,
2013-03-06 13:23:00,46.0,34.8,29.98,NNE,23,0.0,2.6,65,0.14,,,0.20,WUHU216HW,2013-03-06 18:23:00,
2013-03-06 13:28:00,46.5,35.4,29.98,NE,45,6.9,7.8,65,0.17,,,0.22,WUHU216HW,2013-03-06 18:28:00,
2013-03-06 13:33:00,46.5,35.0,29.98,NNE,23,0.0,7.8,64,0.14,,,0.24,WUHU216HW,2013-03-06 18:33:00,
2013-03-06 13:39:00,47.1,35.5,29.98,NNE,23,7.3,7.3,64,0.14,,,0.24,WUHU216HW,2013-03-06 18:39:00,
2013-03-06 13:44:00,46.7,34.7,29.99,North,0,0.0,7.3,63,0.14,,,0.26,WUHU216HW,2013-03-06 18:44:00,
2013-03-06 13:50:00,46.2,33.8,29.99,ENE,68,4.6,4.6,62,0.14,,,0.28,WUHU216HW,2013-03-06 18:50:00,
2013-03-06 13:56:00,46.0,34.1,29.99,NE,45,0.0,4.6,63,0.12,,,0.28,WUHU216HW,2013-03-06 18:56:00,
2013-03-06 14:01:00,45.6,33.7,29.99,NNE,23,0.0,0.0,63,0.10,,,0.28,WUHU216HW,2013-03-06 19:01:00,
2013-03-06 14:06:00,45.6,33.3,29.99,NNE,23,2.0,2.0,62,0.10,,,0.28,WUHU216HW,2013-03-06 19:06:00,
2013-03-06 14:11:00,45.5,33.2,29.99,NNE,23,0.0,2.4,62,0.12,,,0.30,WUHU216HW,2013-03-06 19:11:00,
2013-03-06 14:16:00,44.9,32.7,29.99,North,0,4.2,4.2,62,0.10,,,0.30,WUHU216HW,2013-03-06 19:16:00,
2013-03-06 14:22:00,44.6,32.7,30.00,NE,45,5.3,7.3,63,0.10,,,0.30,WUHU216HW,2013-03-06 19:22:00,
2013-03-06 14:27:00,44.4,32.5,30.00,NNE,23,0.0,7.3,63,0.08,,,0.30,WUHU216HW,2013-03-06 19:27:00,
2013-03-06 14:32:00,44.4,32.5,30.00,NE,45,0.0,5.3,63,0.06,,,0.30,WUHU216HW,2013-03-06 19:32:00,
2013-03-06 14:38:00,43.8,32.0,30.00,NNE,23,0.0,0.0,63,0.08,,,0.33,WUHU216HW,2013-03-06 19:38:00,
2013-03-06 14:44:00,43.5,31.7,30.00,NNE,23,0.0,0.0,63,0.06,,,0.33,WUHU216HW,2013-03-06 19:44:00,
2013-03-06 14:49:00,43.3,31.5,30.01,NNE,23,0.0,0.0,63,0.04,,,0.33,WUHU216HW,2013-03-06 19:49:00,
2013-03-06 14:55:00,43.5,31.7,30.01,NNE,23,0.0,3.1,63,0.04,,,0.33,WUHU216HW,2013-03-06 19:55:00,
2013-03-06 15:00:00,43.5,32.1,30.01,North,0,0.0,3.1,64,0.04,,,0.33,WUHU216HW,2013-03-06 20:00:00,
2013-03-06 15:06:00,43.3,31.9,30.02,NNE,23,0.0,0.0,64,0.02,,,0.33,WUHU216HW,2013-03-06 20:06:00,
2013-03-06 15:12:00,43.1,31.7,30.02,NNW,338,3.3,3.3,64,0.02,,,0.33,WUHU216HW,2013-03-06 20:12:00,
2013-03-06 15:18:00,43.1,31.7,30.02,NE,45,3.5,3.5,64,0.02,,,0.33,WUHU216HW,2013-03-06 20:18:00,
2013-03-06 15:23:00,42.9,31.5,30.03,NNE,23,0.0,3.5,64,0.02,,,0.33,WUHU216HW,2013-03-06 20:23:00,
2013-03-06 15:28:00,43.3,31.9,30.03,NNE,23,0.0,3.5,64,0.02,,,0.33,WUHU216HW,2013-03-06 20:28:00,
2013-03-06 15:33:00,43.5,32.1,30.03,North,0,0.0,0.0,64,0.00,,,0.33,WUHU216HW,2013-03-06 20:33:00,
2013-03-06 15:39:00,43.5,32.1,30.03,North,0,0.0,2.9,64,0.00,,,0.33,WUHU216HW,2013-03-06 20:39:00,
2013-03-06 15:44:00,43.7,32.2,30.03,NW,315,0.0,2.9,64,0.00,,,0.33,WUHU216HW,2013-03-06 20:44:00,
2013-03-06 15:50:00,43.5,32.1,30.03,NNE,23,0.0,0.0,64,0.00,,,0.33,WUHU216HW,2013-03-06 20:50:00,
2013-03-06 15:55:00,43.5,31.7,30.03,NNE,23,0.0,2.4,63,0.00,,,0.33,WUHU216HW,2013-03-06 20:55:00,
2013-03-06 16:01:00,43.3,31.5,30.03,NNE,23,0.0,2.4,63,0.00,,,0.33,WUHU216HW,2013-03-06 21:01:00,
2013-03-06 16:06:00,43.3,31.5,30.03,North,0,0.0,0.0,63,0.00,,,0.33,WUHU216HW,2013-03-06 21:06:00,
2013-03-06 16:11:00,43.1,31.3,30.04,NNW,338,0.0,5.8,63,0.00,,,0.33,WUHU216HW,2013-03-06 21:11:00,
2013-03-06 16:17:00,42.8,31.0,30.04,NNE,23,0.0,6.4,63,0.00,,,0.33,WUHU216HW,2013-03-06 21:17:00,
2013-03-06 16:22:00,42.6,30.8,30.04,NNE,23,0.0,6.4,63,0.00,,,0.33,WUHU216HW,2013-03-06 21:22:00,
2013-03-06 16:28:00,42.4,31.0,30.05,NW,315,0.0,0.0,64,0.00,,,0.33,WUHU216HW,2013-03-06 21:28:00,
2013-03-06 16:34:00,42.0,30.7,30.05,NNW,338,0.0,4.2,64,0.00,,,0.33,WUHU216HW,2013-03-06 21:34:00,
2013-03-06 16:39:00,42.0,30.7,30.05,North,0,0.0,4.2,64,0.00,,,0.33,WUHU216HW,2013-03-06 21:39:00,
2013-03-06 16:45:00,41.7,30.7,30.05,NW,315,0.0,0.0,65,0.00,,,0.33,WUHU216HW,2013-03-06 21:45:00,
2013-03-06 16:50:00,41.5,30.6,30.06,NNW,338,0.0,0.0,65,0.00,,,0.33,WUHU216HW,2013-03-06 21:50:00,
2013-03-06 16:55:00,41.5,30.6,30.06,NNW,338,0.0,0.0,65,0.00,,,0.33,WUHU216HW,2013-03-06 21:55:00,
2013-03-06 17:00:00,41.3,30.4,30.06,NNW,338,0.0,0.0,65,0.00,,,0.33,WUHU216HW,2013-03-06 22:00:00,
2013-03-06 17:06:00,41.0,30.1,30.07,NNW,338,0.0,0.0,65,0.00,,,0.33,WUHU216HW,2013-03-06 22:06:00,
2013-03-06 17:12:00,40.8,30.3,30.07,NNW,338,0.0,0.0,66,0.00,,,0.33,WUHU216HW,2013-03-06 22:12:00,
2013-03-06 17:17:00,40.6,30.1,30.07,NNW,338,0.0,0.0,66,0.00,,,0.33,WUHU216HW,2013-03-06 22:17:00,
2013-03-06 17:22:00,40.6,30.1,30.08,NNW,338,0.0,0.0,66,0.00,,,0.33,WUHU216HW,2013-03-06 22:22:00,
2013-03-06 17:27:00,40.2,30.1,30.07,NNW,338,0.0,0.0,67,0.00,,,0.33,WUHU216HW,2013-03-06 22:27:00,
2013-03-06 17:33:00,40.2,30.1,30.07,NNW,338,0.0,0.0,67,0.00,,,0.33,WUHU216HW,2013-03-06 22:33:00,
2013-03-06 17:38:00,40.1,29.9,30.08,NNW,338,0.0,0.0,67,0.00,,,0.33,WUHU216HW,2013-03-06 22:38:00,
2013-03-06 17:43:00,39.9,29.7,30.08,NNW,338,0.0,0.0,67,0.00,,,0.33,WUHU216HW,2013-03-06 22:43:00,
2013-03-06 17:48:00,39.7,29.6,30.08,NNW,338,0.0,0.0,67,0.00,,,0.33,WUHU216HW,2013-03-06 22:48:00,
2013-03-06 17:54:00,39.7,29.6,30.08,NNW,338,0.0,0.0,67,0.00,,,0.33,WUHU216HW,2013-03-06 22:54:00,
2013-03-06 17:59:00,39.3,29.2,30.09,NNW,338,0.0,0.0,67,0.00,,,0.33,WUHU216HW,2013-03-06 22:59:00,
2013-03-06 18:05:00,39.0,28.9,30.09,NNW,338,0.0,0.0,67,0.00,,,0.33,WUHU216HW,2013-03-06 23:05:00,
2013-03-06 18:10:00,39.0,29.2,30.09,NNW,338,0.0,0.0,68,0.00,,,0.33,WUHU216HW,2013-03-06 23:10:00,
2013-03-06 18:15:00,38.8,29.1,30.09,NNW,338,0.0,0.0,68,0.00,,,0.33,WUHU216HW,2013-03-06 23:15:00,
2013-03-06 18:20:00,38.6,28.9,30.09,NNW,338,0.0,0.0,68,0.00,,,0.33,WUHU216HW,2013-03-06 23:20:00,
2013-03-06 18:25:00,38.3,28.6,30.09,NNW,338,0.0,0.0,68,0.00,,,0.33,WUHU216HW,2013-03-06 23:25:00,
2013-03-06 18:31:00,38.1,28.8,30.08,NNW,338,0.0,0.0,69,0.00,,,0.33,WUHU216HW,2013-03-06 23:31:00,
2013-03-06 18:36:00,38.1,28.8,30.09,NNW,338,0.0,0.0,69,0.00,,,0.33,WUHU216HW,2013-03-06 23:36:00,
2013-03-06 18:42:00,37.9,28.6,30.09,NNW,338,0.0,0.0,69,0.00,,,0.33,WUHU216HW,2013-03-06 23:42:00,
2013-03-06 18:48:00,37.9,29.0,30.09,North,0,0.0,0.0,70,0.00,,,0.33,WUHU216HW,2013-03-06 23:48:00,
2013-03-06 18:53:00,37.9,29.0,30.09,North,0,0.0,0.0,70,0.00,,,0.33,WUHU216HW,2013-03-06 23:53:00,
2013-03-06 18:58:00,37.9,29.0,30.10,North,0,0.0,0.0,70,0.00,,,0.33,WUHU216HW,2013-03-06 23:58:00,
2013-03-06 19:04:00,37.9,29.0,30.10,North,0,0.0,0.0,70,0.00,,,0.33,WUHU216HW,2013-03-07 00:04:00,
2013-03-06 19:09:00,37.9,29.0,30.10,North,0,0.0,0.0,70,0.00,,,0.33,WUHU216HW,2013-03-07 00:09:00,
2013-03-06 19:14:00,37.9,29.0,30.10,North,0,0.0,0.0,70,0.00,,,0.33,WUHU216HW,2013-03-07 00:14:00,
2013-03-06 19:20:00,37.9,29.0,30.10,North,0,0.0,0.0,70,0.00,,,0.33,WUHU216HW,2013-03-07 00:20:00,
2013-03-06 19:25:00,37.9,29.0,30.10,North,0,0.0,0.0,70,0.00,,,0.33,WUHU216HW,2013-03-07 00:25:00,
2013-03-06 19:31:00,37.9,29.0,30.10,North,0,0.0,0.0,70,0.00,,,0.33,WUHU216HW,2013-03-07 00:31:00,
2013-03-06 19:37:00,37.7,29.2,30.10,North,0,0.0,0.0,71,0.00,,,0.33,WUHU216HW,2013-03-07 00:37:00,
2013-03-06 19:43:00,37.5,29.0,30.11,North,0,0.0,0.0,71,0.00,,,0.33,WUHU216HW,2013-03-07 00:43:00,
2013-03-06 19:48:00,37.5,29.0,30.11,North,0,0.0,0.0,71,0.00,,,0.33,WUHU216HW,2013-03-07 00:48:00,
2013-03-06 19:54:00,37.5,29.0,30.10,North,0,0.0,0.0,71,0.00,,,0.33,WUHU216HW,2013-03-07 00:54:00,
2013-03-06 20:00:00,37.4,28.9,30.11,North,0,0.0,0.0,71,0.00,,,0.33,WUHU216HW,2013-03-07 01:00:00,
2013-03-06 20:05:00,37.2,28.7,30.12,North,0,0.0,0.0,71,0.00,,,0.33,WUHU216HW,2013-03-07 01:05:00,
2013-03-06 20:11:00,37.2,28.7,30.12,North,0,0.0,0.0,71,0.00,,,0.33,WUHU216HW,2013-03-07 01:11:00,
2013-03-06 20:17:00,37.2,28.7,30.12,North,0,0.0,0.0,71,0.00,,,0.33,WUHU216HW,2013-03-07 01:17:00,
2013-03-06 20:22:00,37.2,28.7,30.12,North,0,0.0,0.0,71,0.00,,,0.33,WUHU216HW,2013-03-07 01:22:00,
2013-03-06 20:27:00,37.2,28.7,30.12,North,0,0.0,0.0,71,0.00,,,0.33,WUHU216HW,2013-03-07 01:27:00,
2013-03-06 20:33:00,37.2,28.7,30.12,North,0,0.0,0.0,71,0.00,,,0.33,WUHU216HW,2013-03-07 01:33:00,
2013-03-06 20:38:00,37.2,29.0,30.12,North,0,0.0,0.0,72,0.00,,,0.33,WUHU216HW,2013-03-07 01:38:00,
2013-03-06 20:43:00,37.2,29.0,30.12,North,0,0.0,0.0,72,0.00,,,0.33,WUHU216HW,2013-03-07 01:43:00,
2013-03-06 20:49:00,37.2,29.0,30.12,North,0,0.0,0.0,72,0.00,,,0.33,WUHU216HW,2013-03-07 01:49:00,
2013-03-06 20:55:00,37.2,29.0,30.12,NNW,338,0.0,0.0,72,0.00,,,0.33,WUHU216HW,2013-03-07 01:55:00,
2013-03-06 21:01:00,37.2,29.0,30.13,WNW,293,0.0,0.0,72,0.00,,,0.33,WUHU216HW,2013-03-07 02:01:00,
2013-03-06 21:06:00,37.2,29.0,30.13,WNW,293,0.0,0.0,72,0.00,,,0.33,WUHU216HW,2013-03-07 02:06:00,
2013-03-06 21:12:00,37.2,29.0,30.13,WNW,293,0.0,0.0,72,0.00,,,0.33,WUHU216HW,2013-03-07 02:12:00,
2013-03-06 21:17:00,37.2,29.0,30.13,NW,315,0.0,0.0,72,0.00,,,0.33,WUHU216HW,2013-03-07 02:17:00,
2013-03-06 21:22:00,37.2,29.0,30.13,NW,315,0.0,0.0,72,0.00,,,0.33,WUHU216HW,2013-03-07 02:22:00,
2013-03-06 21:28:00,37.4,28.9,30.13,NW,315,0.0,0.0,71,0.00,,,0.33,WUHU216HW,2013-03-07 02:28:00,
2013-03-06 21:33:00,37.4,28.9,30.13,NW,315,0.0,0.0,71,0.00,,,0.33,WUHU216HW,2013-03-07 02:33:00,
2013-03-06 21:38:00,37.4,28.9,30.13,NW,315,0.0,0.0,71,0.00,,,0.33,WUHU216HW,2013-03-07 02:38:00,
2013-03-06 21:44:00,37.2,28.7,30.13,NW,315,0.0,0.0,71,0.00,,,0.33,WUHU216HW,2013-03-07 02:44:00,
2013-03-06 21:49:00,37.2,28.7,30.13,NW,315,0.0,0.0,71,0.00,,,0.33,WUHU216HW,2013-03-07 02:49:00,
2013-03-06 21:55:00,37.0,28.5,30.13,NW,315,0.0,0.0,71,0.00,,,0.33,WUHU216HW,2013-03-07 02:55:00,
2013-03-06 22:00:00,37.0,28.5,30.13,NW,315,0.0,0.0,71,0.00,,,0.33,WUHU216HW,2013-03-07 03:00:00,
2013-03-06 22:05:00,36.6,28.1,30.13,NW,315,0.0,0.0,71,0.00,,,0.33,WUHU216HW,2013-03-07 03:05:00,
2013-03-06 22:11:00,36.5,28.0,30.13,NW,315,0.0,0.0,71,0.00,,,0.33,WUHU216HW,2013-03-07 03:11:00,
2013-03-06 22:17:00,36.1,27.6,30.13,NW,315,0.0,0.0,71,0.00,,,0.33,WUHU216HW,2013-03-07 03:17:00,
2013-03-06 22:22:00,35.7,27.7,30.13,NW,315,0.0,0.0,72,0.00,,,0.33,WUHU216HW,2013-03-07 03:22:00,
2013-03-06 22:27:00,35.7,27.6,30.12,NW,315,0.0,0.0,72,0.00,,,0.33,WUHU216HW,2013-03-07 03:27:00,
2013-03-06 22:32:00,35.4,27.2,30.12,NW,315,0.0,0.0,72,0.00,,,0.33,WUHU216HW,2013-03-07 03:32:00,
2013-03-06 22:37:00,35.4,27.2,30.13,NW,315,0.0,0.0,72,0.00,,,0.33,WUHU216HW,2013-03-07 03:37:00,
2013-03-06 22:42:00,35.4,27.2,30.13,NW,315,0.0,0.0,72,0.00,,,0.33,WUHU216HW,2013-03-07 03:42:00,
2013-03-06 22:47:00,35.4,27.5,30.13,NW,315,0.0,0.0,73,0.00,,,0.33,WUHU216HW,2013-03-07 03:47:00,
2013-03-06 22:53:00,35.4,27.5,30.13,NW,315,0.0,0.0,73,0.00,,,0.33,WUHU216HW,2013-03-07 03:53:00,
2013-03-06 22:58:00,35.4,27.5,30.13,NW,315,0.0,0.0,73,0.00,,,0.33,WUHU216HW,2013-03-07 03:58:00,
2013-03-06 23:04:00,35.4,27.5,30.13,NW,315,0.0,0.0,73,0.00,,,0.33,WUHU216HW,2013-03-07 04:04:00,
2013-03-06 23:09:00,35.4,27.5,30.13,West,270,0.0,0.0,73,0.00,,,0.33,WUHU216HW,2013-03-07 04:09:00,
2013-03-06 23:14:00,35.4,27.8,30.12,SW,225,0.0,0.0,74,0.00,,,0.33,WUHU216HW,2013-03-07 04:14:00,
2013-03-06 23:20:00,35.4,27.8,30.13,SW,225,0.0,0.0,74,0.00,,,0.33,WUHU216HW,2013-03-07 04:20:00,
2013-03-06 23:25:00,35.4,27.8,30.13,SW,225,0.0,0.0,74,0.00,,,0.33,WUHU216HW,2013-03-07 04:25:00,
2013-03-06 23:30:00,35.4,27.8,30.12,SW,225,0.0,0.0,74,0.00,,,0.33,WUHU216HW,2013-03-07 04:30:00,
2013-03-06 23:35:00,35.4,27.8,30.13,SW,225,0.0,0.0,74,0.00,,,0.33,WUHU216HW,2013-03-07 04:35:00,
2013-03-06 23:46:00,35.2,27.7,30.13,SW,225,0.0,0.0,74,0.00,,,0.33,WUHU216HW,2013-03-07 04:46:00,
2013-03-06 23:52:00,35.2,27.7,30.13,SW,225,0.0,0.0,74,0.00,,,0.33,WUHU216HW,2013-03-07 04:52:00,
2013-03-06 23:57:00,35.2,27.7,30.13,SW,225,0.0,0.0,74,0.00,,,0.33,WUHU216HW,2013-03-07 04:57:00,